Theta_e
348 346 343 343 342 342 342 343 344 344 343 344 346 349 347 346 346 347 347 347 346 346 345 343 338 344 345 345 343 341 340 341 341 339 337 336 335 333 332 331 330 330 330
353 352 351 349 348 347 345 345 344 344 344 346 347 348 347 347 348 346 345 343 346 346 345 343 344 344 342 343 342 339 339 338 336 335 334 334 334 331 333 333 332 330 332
353 353 353 353 351 349 349 350 350 350 349 350 351 349 349 349 349 347 346 345 344 345 343 343 340 341 338 337 336 334 332 330 329 329 331 332 332 331 330 328 329 331 332
352 353 353 353 354 354 353 352 351 352 351 351 352 351 348 347 346 346 345 343 342 341 340 338 337 332 325 321 321 319 317 317 321 325 327 329 330 330 330 330 329 330 331
350 352 352 352 351 351 350 349 347 346 344 346 346 346 344 343 345 343 341 338 337 332 325 320 314 313 312 311 311 311 311 312 316 322 324 325 327 328 326 328 328 328 329
345 347 348 348 347 348 347 345 343 344 343 345 344 346 343 345 342 338 335 329 317 314 312 312 311 311 310 309 308 309 309 311 314 317 321 322 322 323 323 324 326 326 327
343 341 338 339 340 338 337 335 336 339 339 341 342 343 342 341 336 331 325 320 314 313 312 311 310 309 308 307 306 305 306 307 309 312 315 317 320 321 321 322 324 325 325
342 341 339 339 336 334 334 333 333 333 336 333 328 329 329 328 326 322 320 314 313 312 312 312 312 311 309 307 305 304 304 304 305 308 312 317 318 317 318 320 321 323 321
342 341 339 337 334 333 330 327 326 324 323 322 322 322 324 323 321 319 314 313 312 312 312 312 312 310 308 304 303 303 303 303 303 305 308 311 314 317 315 316 318 319 322
340 339 339 336 333 327 324 322 322 321 321 320 320 320 321 320 318 315 313 312 312 312 312 312 312 310 306 303 302 302 303 303 303 303 304 306 307 310 315 316 314 316 317
339 340 339 335 328 324 323 323 321 319 318 320 320 320 319 317 316 314 313 312 312 312 312 312 312 311 306 302 302 301 301 302 303 304 305 305 305 304 304 311 315 314 314
335 338 338 331 325 324 324 322 321 317 317 319 320 320 319 315 314 313 313 313 313 313 313 312 312 310 306 302 301 301 300 302 305 306 306 305 304 303 303 302 303 311 315
334 334 334 330 326 326 326 325 323 319 319 319 319 318 315 314 315 315 315 315 315 315 313 313 312 310 306 302 302 300 300 302 304 305 305 303 300 300 300 301 301 301 307
337 338 335 333 330 328 328 327 325 322 319 318 317 316 318 320 320 320 319 319 318 317 314 313 312 310 307 303 302 301 299 300 301 303 303 301 300 301 303 303 303 301 300
335 331 333 332 331 330 329 329 328 323 321 319 319 320 321 321 321 320 320 319 318 315 313 312 311 309 306 303 302 300 299 298 300 301 301 301 301 303 305 306 305 305 304
332 329 330 333 331 331 329 329 328 324 324 322 321 321 321 322 321 320 318 316 316 315 313 311 310 308 305 303 302 300 298 298 299 299 299 300 302 303 305 306 306 307 307
332 331 333 334 332 331 330 329 328 326 325 323 322 322 322 321 320 319 317 315 312 311 311 310 308 306 303 301 300 300 299 298 298 299 299 300 301 302 303 303 305 306 307
333 333 335 331 329 329 328 328 327 325 324 323 322 322 320 318 316 315 313 313 312 310 309 308 305 301 299 299 299 298 298 299 299 299 300 299 299 300 300 301 302 303 304
329 333 332 331 329 328 327 327 325 323 322 321 321 319 315 313 313 315 311 310 309 307 303 299 298 297 297 298 298 298 299 299 299 299 299 299 298 298 299 300 300 301 302
323 325 330 329 328 326 326 324 321 319 317 314 311 314 314 314 314 309 307 307 304 299 298 297 297 297 297 298 298 298 298 298 298 298 298 298 298 297 297 298 299 299 300
312 314 316 316 312 314 317 316 313 312 311 313 312 312 312 312 308 302 301 299 299 298 298 297 296 297 297 297 297 297 297 298 297 297 297 297 297 297 297 297 297 298 298
308 309 310 309 310 311 313 313 311 308 310 310 309 306 303 300 299 298 298 298 297 297 297 297 297 297 297 297 297 297 297 297 297 297 297 297 297 296 296 297 296 296 296
308 309 309 307 305 303 303 300 301 304 300 300 298 298 298 298 298 298 298 298 297 297 297 297 297 297 297 296 296 296 296 296 297 296 296 296 296 296 296 296 296 295 295
303 304 304 305 302 302 301 299 298 298 298 298 298 298 298 298 297 298 298 298 297 296 296 296 296 296 296 296 296 296 296 296 296 296 296 296 296 295 295 295 295 295 295
301 301 301 301 300 300 298 298 298 297 297 297 297 298 298 298 298 298 297 296 295 295 295 295 295 295 295 295 295 296 296 296 296 296 296 296 296 296 295 294 294 294 294
300 300 300 299 299 298 297 296 295 296 297 297 297 297 297 297 296 297 297 297 298 297 296 295 295 295 295 295 295 295 294 295 295 295 295 295 295 295 295 294 294 294 295
Wind_Speed
30 27 29 32 35 38 35 30 29 27 30 26 22 20 18 19 22 23 21 18 18 19 22 18 19 18 20 23 23 17 18 17 21 23 22 22 18 16 16 15 20 23 23
34 33 32 32 32 33 31 31 32 30 30 26 24 25 20 19 20 20 21 18 17 17 16 15 16 15 11 17 22 17 20 17 17 17 20 13 22 4 19 21 23 16 22
43 38 35 34 32 31 30 29 27 26 29 29 29 25 22 20 16 16 13 13 12 11 8 11 10 16 17 15 14 16 16 15 14 14 8 7 7 25 19 19 21 20 18
42 42 39 35 32 31 28 22 21 22 22 21 20 20 21 18 13 10 8 7 7 9 11 11 12 9 7 9 11 12 12 12 11 9 8 8 12 13 16 22 20 21 20
40 44 41 37 33 31 28 24 22 21 20 20 15 15 16 17 15 11 8 5 4 2 3 3 5 5 7 9 10 9 10 9 8 8 8 8 9 11 18 19 29 24 21
38 38 35 33 33 31 28 25 22 20 19 18 19 17 18 16 14 12 8 8 9 10 9 8 7 8 9 10 11 10 10 9 8 7 7 10 11 12 15 20 25 28 25
40 36 36 35 33 30 27 24 21 19 17 15 15 15 14 14 12 11 9 9 9 10 9 8 8 9 11 13 13 12 12 12 12 11 9 8 9 11 12 15 20 24 27
43 42 41 36 33 31 28 25 23 21 19 16 15 14 13 13 13 11 9 10 9 9 8 7 9 11 14 15 14 13 14 14 13 12 11 9 10 12 12 13 18 22 25
47 48 42 36 34 31 29 27 26 22 20 17 15 14 14 13 13 12 12 11 8 5 4 4 7 11 15 16 15 14 13 14 14 14 14 14 13 12 11 11 12 14 17
34 42 42 37 33 30 28 27 24 21 20 18 16 17 17 14 14 14 12 10 6 3 1 5 8 12 15 14 15 15 15 14 14 15 16 16 16 15 15 15 13 11 13
45 47 43 36 33 30 29 26 24 23 19 21 20 19 17 17 17 13 12 9 6 4 5 6 9 14 15 15 15 16 16 16 16 16 16 17 18 18 17 18 17 15 15
27 35 36 32 31 30 28 25 23 22 25 23 22 20 17 17 15 14 12 9 6 6 8 9 11 15 18 17 17 17 17 16 17 18 20 21 23 23 22 20 20 21 16
31 31 34 32 31 32 29 24 23 24 25 23 23 20 19 16 14 12 9 7 6 8 10 11 13 15 19 18 18 18 17 17 20 23 24 26 27 24 20 18 18 19 21
37 44 40 39 37 32 34 31 26 26 24 24 23 20 19 15 11 9 8 6 7 9 11 14 15 17 20 20 19 19 19 18 19 23 25 24 22 17 15 14 14 15 18
42 39 41 47 46 47 47 33 37 34 28 27 25 23 19 14 12 11 10 9 9 10 13 16 18 20 22 23 23 23 20 19 19 21 25 23 16 12 11 13 13 13 14
37 39 44 49 50 51 48 37 37 37 30 29 27 22 20 19 18 13 10 11 13 15 16 18 22 23 25 26 25 23 22 21 22 22 20 16 13 10 10 9 10 14 15
36 40 45 47 48 50 45 42 39 36 34 33 33 27 25 23 19 17 15 13 15 17 19 21 24 27 28 29 26 23 24 22 20 19 14 13 12 8 10 11 10 9 10
33 39 46 37 35 36 38 39 35 36 38 34 35 28 27 23 20 15 13 14 18 21 23 25 27 29 28 27 25 25 20 14 11 12 13 12 14 11 12 11 10 9 12
22 29 28 28 29 29 34 33 32 33 33 31 32 33 30 21 10 11 15 17 20 23 25 26 26 25 23 20 18 18 15 14 13 12 12 14 13 16 15 14 14 12 14
9 16 24 28 29 29 32 32 32 32 32 33 26 12 4 6 13 15 13 18 20 21 20 21 20 17 15 12 15 13 14 14 16 15 13 16 17 18 16 16 17 19 19
34 34 33 33 31 29 32 33 30 27 18 17 7 1 3 9 11 14 13 15 16 17 20 19 18 18 15 14 14 15 17 18 18 17 17 17 18 18 18 18 19 22 24
43 44 46 43 37 32 27 26 21 15 8 6 1 1 2 5 7 11 12 15 19 18 17 18 17 17 18 18 19 18 19 21 21 21 21 20 20 21 22 22 21 22 24
38 34 38 36 33 32 28 25 21 14 11 6 4 4 1 3 7 10 12 12 13 15 17 18 19 21 22 24 23 23 22 22 24 24 26 28 29 27 28 29 28 27 31
32 32 28 33 31 24 19 21 11 17 7 7 4 6 4 5 6 8 13 16 17 16 16 19 23 26 26 24 22 23 22 22 24 27 28 28 29 28 28 27 24 23 22
28 29 27 34 28 22 20 13 9 7 4 8 8 9 9 9 10 9 9 9 8 11 16 18 21 22 26 25 25 27 28 28 27 29 31 32 32 33 31 28 25 23 21
26 27 25 25 22 16 15 12 13 11 10 11 12 11 10 12 11 12 13 12 14 13 11 14 18 21 24 28 30 32 34 35 34 33 32 32 30 27 27 27 25 21 20
Wind_Direction
183 181 185 193 200 206 208 207 212 215 218 214 211 215 234 241 242 246 250 257 263 265 264 258 267 267 274 278 292 269 278 290 296 307 305 310 314 318 315 319 315 308 307
170 173 177 185 192 197 202 205 210 217 215 219 217 225 235 239 240 248 248 249 254 262 260 259 267 273 289 291 296 313 313 315 323 329 331 327 320 293 308 313 318 319 323
178 178 182 184 186 189 191 197 198 202 209 215 223 232 234 242 245 252 265 274 258 242 245 262 280 285 302 302 311 320 322 330 337 340 349 329 308 320 324 327 333 330 327
186 184 185 184 187 191 196 199 202 204 211 216 218 234 244 247 224 228 217 213 230 260 267 276 290 304 335 349 351 349 348 345 348 4 2 348 326 322 324 328 337 336 337
196 191 191 191 190 196 198 202 205 208 216 219 223 234 227 230 222 202 199 207 253 230 112 82 72 50 30 19 12 6 4 357 358 358 354 345 344 350 335 329 335 326 336
206 201 198 197 197 195 197 199 204 205 204 209 223 225 227 213 198 184 173 136 118 113 102 87 67 48 31 19 8 1 346 344 343 347 349 356 6 342 340 333 332 329 331
211 201 197 194 190 186 186 188 193 191 194 194 191 196 198 189 177 159 139 126 125 118 102 84 61 34 19 7 0 352 342 338 332 333 336 330 333 343 334 334 328 328 332
210 202 199 189 184 181 180 179 178 178 178 179 176 171 169 166 155 147 138 136 133 120 92 52 28 10 359 352 348 343 339 338 331 327 321 323 311 314 332 344 341 333 326
199 198 193 186 180 176 173 173 170 168 168 172 168 166 165 164 158 155 148 143 134 117 83 20 3 358 349 345 342 338 335 331 328 322 317 313 303 301 310 314 331 342 329
183 187 188 184 179 171 167 168 169 170 168 176 171 164 164 166 163 159 158 153 156 188 320 339 347 350 349 344 337 332 334 331 325 319 313 307 305 300 294 295 298 311 321
184 187 184 181 174 173 173 174 173 172 178 175 169 169 172 173 170 172 172 172 196 251 296 315 334 340 344 338 331 328 327 324 320 315 311 312 311 305 300 288 287 287 295
164 173 177 176 178 178 177 180 186 185 182 182 176 178 180 187 181 182 188 199 218 267 291 311 325 334 336 335 329 326 324 322 318 314 312 311 308 305 302 292 281 279 285
162 168 174 181 190 189 184 189 198 198 185 182 180 180 183 192 201 199 208 219 253 284 294 307 319 330 330 330 328 326 320 315 311 310 312 315 314 307 302 294 286 272 274
178 180 182 184 196 202 195 191 202 200 191 187 182 185 190 195 200 207 214 236 276 289 295 306 314 319 322 323 324 322 316 308 305 306 311 319 321 311 307 304 299 287 274
181 193 195 193 194 206 206 201 203 201 197 195 194 194 193 196 215 222 231 254 276 292 302 306 311 315 317 318 321 320 316 309 305 306 310 315 313 304 306 307 302 295 290
206 210 204 200 205 203 206 203 203 204 200 202 202 200 208 204 206 211 231 253 270 286 296 302 308 311 312 313 315 316 312 306 305 308 312 309 307 299 286 284 294 299 298
197 202 205 209 210 207 212 205 208 208 205 207 207 206 203 198 202 214 232 260 280 291 293 297 302 304 305 308 310 309 307 305 305 307 307 306 310 302 301 290 273 286 294
212 211 209 205 203 207 206 206 208 207 204 202 206 192 187 190 197 213 242 263 282 287 293 296 299 302 304 304 308 307 308 307 311 312 306 308 306 305 302 307 303 288 278
237 229 210 200 199 205 202 201 198 196 191 187 185 178 180 177 200 247 252 262 274 286 292 296 299 301 301 302 311 317 317 316 311 301 296 296 301 299 292 282 286 284 275
167 182 187 183 186 179 190 188 177 175 163 156 141 129 224 231 256 264 273 287 287 293 299 306 308 307 302 304 311 317 306 302 298 295 292 295 298 300 302 287 277 280 278
103 116 124 123 123 138 155 141 132 125 119 116 72 342 300 244 259 279 289 294 294 301 307 309 314 320 311 300 295 302 298 295 294 291 295 297 295 296 296 296 295 284 285
95 102 105 98 97 97 100 106 100 98 104 85 92 149 40 294 275 282 295 298 300 304 307 318 316 315 311 308 301 295 289 292 286 288 292 289 289 291 292 292 294 296 294
86 82 85 84 77 73 71 52 76 80 53 44 78 43 31 297 302 308 308 303 307 310 316 313 316 310 305 303 303 298 291 287 287 285 285 287 288 290 286 280 281 286 287
82 86 85 87 78 73 63 60 43 59 78 101 51 71 358 354 322 310 310 310 304 291 300 315 309 305 304 307 309 306 302 296 292 288 286 284 287 293 296 292 290 290 288
76 76 80 77 75 73 79 72 62 53 51 62 39 35 7 343 346 342 328 307 307 331 328 312 306 305 304 305 299 294 293 292 288 286 284 286 289 293 293 292 292 290 285
86 80 76 82 80 75 71 55 42 32 30 33 30 20 19 20 12 0 350 358 1 347 312 290 285 288 284 286 286 286 287 286 286 284 284 285 288 291 293 291 292 288 284